• In Russia
  • List of Countries
  • For 7 days
  • Water Temperature
  • Satellite Maps
  • Weather Map
  • Weather Widgets
  • user-avatar
    Login

    Hourly Weather Newcastle

    Today, 21 November, Tuesday

    Time Temperature Precipitation Wind Pressure Humidity
    00:00 +16°C° 0.1 mm 2 mps 766 mmHg 95%
    01:00 +16°C° 0.1 mm 2 mps 766 mmHg 95%
    02:00 +16°C° 0 mm 2 mps 766 mmHg 95%
    03:00 +16°C° 0 mm 2 mps 766 mmHg 94%
    04:00 +16°C° 0 mm 2 mps 766 mmHg 93%
    05:00 +17°C° 0 mm 2 mps 766 mmHg 88%
    06:00 +18°C° 0 mm 2 mps 766 mmHg 84%
    07:00 +19°C° 0 mm 2 mps 766 mmHg 79%
    08:00 +20°C° 0.1 mm 3 mps 766 mmHg 73%
    09:00 +21°C° 0.1 mm 3 mps 766 mmHg 67%
    10:00 +24°C° 0 mm 3 mps 766 mmHg 57%
    11:00 +25°C° 0 mm 3 mps 766 mmHg 53%
    12:00 +25°C° 0 mm 3 mps 766 mmHg 49%
    13:00 +26°C° 0 mm 4 mps 765 mmHg 46%
    14:00 +26°C° 0 mm 4 mps 765 mmHg 48%
    15:00 +25°C° 0 mm 4 mps 765 mmHg 51%
    16:00 +25°C° 0 mm 4 mps 765 mmHg 53%
    17:00 +22°C° 0.1 mm 4 mps 765 mmHg 64%
    18:00 +20°C° 0.1 mm 4 mps 765 mmHg 74%
    19:00 +18°C° 0.1 mm 3 mps 765 mmHg 85%
    20:00 +18°C° 0.1 mm 3 mps 765 mmHg 88%
    21:00 +17°C° 0.1 mm 3 mps 765 mmHg 92%
    22:00 +16°C° 0.1 mm 3 mps 766 mmHg 96%
    23:00 +16°C° 0.1 mm 2 mps 765 mmHg 96%

    Tomorrow, 22 November, Wednesday

    Time Temperature Precipitation Wind Pressure Humidity
    00:00 +16°C° 0.1 mm 2 mps 765 mmHg 96%
    01:00 +15°C° 0.1 mm 2 mps 764 mmHg 97%
    02:00 +15°C° 0.1 mm 2 mps 764 mmHg 97%
    03:00 +16°C° 0.1 mm 1 mps 764 mmHg 96%
    04:00 +16°C° 0.1 mm 1 mps 764 mmHg 96%
    05:00 +18°C° 0.2 mm 1 mps 764 mmHg 92%
    06:00 +18°C° 0.2 mm 2 mps 764 mmHg 88%
    07:00 +20°C° 0.2 mm 2 mps 764 mmHg 85%
    08:00 +21°C° 0.2 mm 2 mps 764 mmHg 77%
    09:00 +22°C° 0.2 mm 3 mps 763 mmHg 69%
    10:00 +25°C° 0.2 mm 3 mps 763 mmHg 61%
    11:00 +25°C° 0.3 mm 4 mps 763 mmHg 60%
    12:00 +26°C° 0.3 mm 4 mps 762 mmHg 59%
    13:00 +26°C° 0.3 mm 5 mps 762 mmHg 57%
    14:00 +26°C° 0.4 mm 4 mps 762 mmHg 59%
    15:00 +25°C° 0.4 mm 4 mps 761 mmHg 61%
    16:00 +25°C° 0.4 mm 4 mps 761 mmHg 63%
    17:00 +22°C° 0.2 mm 3 mps 761 mmHg 72%
    18:00 +20°C° 0.2 mm 3 mps 762 mmHg 80%
    19:00 +19°C° 0.2 mm 2 mps 762 mmHg 89%
    20:00 +18°C° 0.4 mm 2 mps 762 mmHg 91%
    21:00 +17°C° 0.4 mm 2 mps 762 mmHg 93%
    22:00 +17°C° 0.4 mm 3 mps 763 mmHg 96%
    23:00 +16°C° 0.1 mm 2 mps 762 mmHg 96%

    Day after tomorrow, 23 November, Thursday

    Time Temperature Precipitation Wind Pressure Humidity
    00:00 +16°C° 0.1 mm 2 mps 762 mmHg 97%
    01:00 +16°C° 0.1 mm 2 mps 761 mmHg 97%
    02:00 +16°C° 0 mm 2 mps 761 mmHg 97%
    03:00 +15°C° 0 mm 1 mps 761 mmHg 97%
    04:00 +15°C° 0 mm 1 mps 761 mmHg 97%
    05:00 +18°C° 0 mm 1 mps 761 mmHg 90%
    06:00 +20°C° 0 mm 1 mps 762 mmHg 83%
    07:00 +21°C° 0 mm 1 mps 762 mmHg 76%
    08:00 +24°C° 0 mm 1 mps 762 mmHg 66%
    09:00 +26°C° 0 mm 1 mps 762 mmHg 55%
    10:00 +28°C° 0 mm 2 mps 762 mmHg 45%
    11:00 +29°C° 0 mm 2 mps 761 mmHg 43%
    12:00 +29°C° 0 mm 3 mps 761 mmHg 41%
    13:00 +30°C° 0 mm 3 mps 760 mmHg 39%
    14:00 +29°C° 0 mm 4 mps 760 mmHg 43%
    15:00 +28°C° 0 mm 4 mps 760 mmHg 46%
    16:00 +28°C° 0 mm 5 mps 759 mmHg 49%
    17:00 +26°C° 0.1 mm 5 mps 760 mmHg 59%
    18:00 +23°C° 0.1 mm 5 mps 760 mmHg 68%
    19:00 +20°C° 0.1 mm 5 mps 760 mmHg 78%
    20:00 +20°C° 0.1 mm 5 mps 761 mmHg 80%
    21:00 +19°C° 0.1 mm 4 mps 761 mmHg 82%
    22:00 +18°C° 0.1 mm 4 mps 761 mmHg 85%
    23:00 +18°C° 0 mm 4 mps 761 mmHg 87%

    24 November, Friday

    Time Temperature Precipitation Wind Pressure Humidity
    00:00 +17°C° 0 mm 3 mps 761 mmHg 90%
    01:00 +16°C° 0 mm 3 mps 760 mmHg 92%
    02:00 +16°C° 0 mm 2 mps 760 mmHg 93%
    03:00 +16°C° 0 mm 2 mps 760 mmHg 94%
    04:00 +15°C° 0 mm 2 mps 760 mmHg 95%
    05:00 +17°C° 0 mm 2 mps 760 mmHg 87%
    06:00 +19°C° 0 mm 2 mps 761 mmHg 79%
    07:00 +21°C° 0 mm 2 mps 761 mmHg 71%
    08:00 +26°C° 0 mm 2 mps 761 mmHg 60%
    09:00 +29°C° 0 mm 2 mps 761 mmHg 50%
    10:00 +32°C° 0 mm 2 mps 761 mmHg 39%
    11:00 +34°C° 0 mm 3 mps 761 mmHg 37%
    12:00 +34°C° 0 mm 3 mps 760 mmHg 35%
    13:00 +35°C° 0 mm 4 mps 760 mmHg 33%
    14:00 +33°C° 0 mm 4 mps 760 mmHg 38%
    15:00 +32°C° 0 mm 4 mps 760 mmHg 43%
    16:00 +29°C° 0 mm 5 mps 759 mmHg 49%
    17:00 +27°C° 0.8 mm 4 mps 760 mmHg 62%
    18:00 +24°C° 0.8 mm 3 mps 760 mmHg 75%
    19:00 +20°C° 0.8 mm 2 mps 761 mmHg 88%
    20:00 +20°C° 0 mm 2 mps 761 mmHg 89%
    21:00 +20°C° 0 mm 2 mps 761 mmHg 90%
    22:00 +19°C° 0 mm 3 mps 762 mmHg 91%
    23:00 +19°C° 0 mm 3 mps 762 mmHg 92%

    25 November, Saturday

    Time Temperature Precipitation Wind Pressure Humidity
    00:00 +18°C° 0 mm 3 mps 761 mmHg 94%
    01:00 +18°C° 0 mm 3 mps 761 mmHg 96%
    02:00 +17°C° 0 mm 2 mps 761 mmHg 96%
    03:00 +17°C° 0 mm 2 mps 761 mmHg 96%
    04:00 +17°C° 0 mm 2 mps 761 mmHg 97%
    05:00 +19°C° 0 mm 2 mps 761 mmHg 90%
    06:00 +21°C° 0 mm 1 mps 762 mmHg 84%
    07:00 +23°C° 0 mm 1 mps 762 mmHg 78%
    08:00 +26°C° 0 mm 1 mps 762 mmHg 66%
    09:00 +29°C° 0 mm 2 mps 762 mmHg 53%
    10:00 +31°C° 0 mm 2 mps 762 mmHg 41%
    11:00 +33°C° 0 mm 3 mps 761 mmHg 39%
    12:00 +33°C° 0 mm 4 mps 761 mmHg 37%
    13:00 +33°C° 0 mm 5 mps 761 mmHg 35%
    14:00 +32°C° 0 mm 5 mps 760 mmHg 39%
    15:00 +30°C° 0 mm 5 mps 760 mmHg 42%
    16:00 +29°C° 0 mm 5 mps 760 mmHg 46%
    17:00 +27°C° 0 mm 5 mps 761 mmHg 56%
    18:00 +23°C° 0 mm 4 mps 761 mmHg 66%
    19:00 +21°C° 0 mm 4 mps 762 mmHg 75%
    20:00 +20°C° 0 mm 3 mps 762 mmHg 81%
    21:00 +19°C° 0 mm 3 mps 762 mmHg 88%
    22:00 +18°C° 0 mm 3 mps 763 mmHg 94%
    23:00 +18°C° 0 mm 3 mps 762 mmHg 95%

    26 November, Sunday

    Time Temperature Precipitation Wind Pressure Humidity
    00:00 +17°C° 0 mm 2 mps 762 mmHg 96%
    01:00 +17°C° 0 mm 2 mps 762 mmHg 98%
    02:00 +17°C° 0 mm 2 mps 762 mmHg 98%
    03:00 +16°C° 0 mm 2 mps 762 mmHg 98%
    04:00 +16°C° 0 mm 1 mps 762 mmHg 98%
    05:00 +18°C° 0 mm 2 mps 762 mmHg 92%
    06:00 +19°C° 0 mm 2 mps 762 mmHg 87%
    07:00 +21°C° 0 mm 2 mps 762 mmHg 81%
    08:00 +24°C° 0 mm 2 mps 762 mmHg 70%
    09:00 +27°C° 0 mm 3 mps 762 mmHg 59%
    10:00 +29°C° 0 mm 3 mps 762 mmHg 48%
    11:00 +30°C° 0 mm 4 mps 762 mmHg 47%
    12:00 +30°C° 0 mm 4 mps 761 mmHg 46%
    13:00 +32°C° 0 mm 5 mps 760 mmHg 46%
    14:00 +30°C° 0 mm 5 mps 760 mmHg 49%
    15:00 +30°C° 0 mm 5 mps 760 mmHg 52%
    16:00 +29°C° 0 mm 5 mps 760 mmHg 55%
    17:00 +27°C° 0 mm 5 mps 761 mmHg 64%
    18:00 +25°C° 0 mm 4 mps 761 mmHg 73%
    19:00 +22°C° 0 mm 4 mps 761 mmHg 82%
    20:00 +21°C° 0 mm 4 mps 762 mmHg 88%
    21:00 +20°C° 0 mm 4 mps 762 mmHg 93%
    22:00 +20°C° 0 mm 3 mps 762 mmHg 98%
    23:00 +20°C° 0 mm 3 mps 761 mmHg 98%
    Show more